User: anonymous   Login
Location: 相模原市立博物館
(35.5593°N, 139.3931°E)
Time: 13:45:53
(UTC+09:00)
Language:

METEOR M2 - Orbit

View from above orbital plane
View from above orbital plane
View from above satellite
View from above satellite

Ground track
Ground track

The orbit data is extracted from the following two-line orbital elements,

1 40069U 14037A   22026.76355142 -.00000038  00000-0  14040-5 0  9995
2 40069  98.4430  50.9539 0006167  25.0459 335.1008 14.20695566391743
Epoch (UTC): 26 January 2022 18:19:30
Eccentricity: 0.0006167
inclination: 98.4430°
perigee height: 818 km
apogee height: 827 km
right ascension of ascending node: 50.9539°
argument of perigee: 25.0459°
revolutions per day: 14.20695566
mean anomaly at epoch: 335.1008°
orbit number at epoch: 39174

The dashed part of the orbit path shows where the satellite is in the earth's shadow,  

DLR